Regional Weather Roundup
Issued by NWS

Home | Current Version | Previous Version | Text Only | Print | Product List | Glossary On
Versions: 1 2 3 4 5 6 7 8 9 10 11 12 13 14 15 16 17 18 19 20 21 22 23 24 25 26 27 28 29 30 31 32 33 34 35 36 37 38 39 40 41 42 43 44 45 46 47 48 49 50
000
ASUS43 KLMK 201810
RWRKY
KENTUCKY REGIONAL WEATHER ROUNDUP
NATIONAL WEATHER SERVICE LOUISVILLE KY
100 PM EST TUE FEB 20 2018

NOTE "FAIR" INDICATES FEW OR NO CLOUDS BELOW 12,000 FEET
WITH NO SIGNIFICANT WEATHER AND/OR OBSTRUCTIONS TO VISIBILITY.

KYZ001>023-026-027-061>063-070>075-201900-
WESTERN AND SOUTH CENTRAL KENTUCKY

CITY           SKY/WX    TMP DP  RH WIND       PRES   REMARKS
PADUCAH        FAIR      76  57  51 SW16G28   30.07F
HENDERSON      FAIR      75  58  55 SW21G26   30.08F
OWENSBORO      FAIR      77  58  51 S18G32    30.10F
HOPKINSVILLE   FAIR      78  51  38 S16G33    30.14F
BOWLING GREEN  FAIR      77  59  53 S21G37    30.18F
GLASGOW        FAIR      76  56  49 S17G28    30.20F
$$

KYZ024-025-028>034-038-045-046-053-201900-
NORTH CENTRAL KENTUCKY

CITY           SKY/WX    TMP DP  RH WIND       PRES   REMARKS
LOUISVILLE/SDF CLOUDY    80  53  39 S18G32    30.12F
LOUISVILLE/LOU FAIR      79  55  43 S17G29    30.13F
FORT KNOX      FAIR      77  54  44 S22G31    30.15F
$$

KYZ035>037-039>044-047>052-055>060-089>105-201900-
NORTHEAST KENTUCKY

CITY           SKY/WX    TMP DP  RH WIND       PRES   REMARKS
LEXINGTON      FAIR      77  55  46 S25G33    30.19F
COVINGTON      PTSUNNY   76  57  51 SW21G31   30.13F
FRANKFORT      FAIR      78  53  41 S23G37    30.15F
$$

KYZ054-064>069-076>088-106>120-201900-
SOUTHEAST KENTUCKY

CITY           SKY/WX    TMP DP  RH WIND       PRES   REMARKS
JACKSON        FAIR      78  53  41 S10G20    30.25F
LONDON         FAIR      77  53  43 SW18G35   30.26F
SOMERSET       PTSUNNY   73  55  53 MISG      30.26F
MIDDLESBORO    FAIR      75  56  51 S13G20    30.30F
MONTICELLO     NOT AVBL
$$




USA.gov is the U.S. government's official web portal to all federal, state and local government web resources and services.